User: anonymous   Login
Location: Hackbridge
(51.3833°N, 0.1500°W)
Time: 17:53:38
(UTC+00:00)
Language:

STARLINK-25 - Orbit

View from above orbital plane
View from above orbital plane
View from above satellite
View from above satellite

Ground track
Ground track

The orbit data is extracted from the following two-line orbital elements,

1 44239U 19029E   19349.25001157 -.00002880  00000-0 -14812-3 0  9999
2 44239  53.0067 330.8633 0001959  47.9538 128.2163 15.12137100 30996
Epoch (UTC): 15 December 2019 06:00:01
Eccentricity: 0.0001959
inclination: 53.0067°
perigee height: 528 km
apogee height: 531 km
right ascension of ascending node: 330.8633°
argument of perigee: 47.9538°
revolutions per day: 15.12137100
mean anomaly at epoch: 128.2163°
orbit number at epoch: 3099

The dashed part of the orbit path shows where the satellite is in the earth's shadow,  

DLR